owner,sensor,date,latitude,longitude,relative_humidity,qcFlag 
DISL,ioos:station:DISL:KATA:1,2019-10-01T00:56:00Z,30.2583,-88.2131,61.95,11111222 
DISL,ioos:station:DISL:KATA:1,2019-10-01T01:56:00Z,30.2583,-88.2131,64.39,11111222 
DISL,ioos:station:DISL:KATA:1,2019-10-01T02:56:00Z,30.2583,-88.2131,65.82,11111222 
DISL,ioos:station:DISL:KATA:1,2019-10-01T03:56:00Z,30.2583,-88.2131,66.56,11111222 
DISL,ioos:station:DISL:KATA:1,2019-10-01T04:56:00Z,30.2583,-88.2131,64.02,11111222 
DISL,ioos:station:DISL:KATA:1,2019-10-01T05:56:00Z,30.2583,-88.2131,65.48,11111222 
DISL,ioos:station:DISL:KATA:1,2019-10-01T06:56:00Z,30.2583,-88.2131,62.8,11111222 
DISL,ioos:station:DISL:KATA:1,2019-10-01T07:56:00Z,30.2583,-88.2131,60.12,11111222 
DISL,ioos:station:DISL:KATA:1,2019-10-01T08:56:00Z,30.2583,-88.2131,63.28,11111222 
DISL,ioos:station:DISL:KATA:1,2019-10-01T09:56:00Z,30.2583,-88.2131,61.21,11111222 
DISL,ioos:station:DISL:KATA:1,2019-10-01T10:56:00Z,30.2583,-88.2131,76.54,11111222 
DISL,ioos:station:DISL:KATA:1,2019-10-01T11:56:00Z,30.2583,-88.2131,79.55,11111222 
DISL,ioos:station:DISL:KATA:1,2019-10-01T12:56:00Z,30.2583,-88.2131,76.81,11111222 
DISL,ioos:station:DISL:KATA:1,2019-10-01T13:56:00Z,30.2583,-88.2131,65.82,11111222 
DISL,ioos:station:DISL:KATA:1,2019-10-01T14:56:00Z,30.2583,-88.2131,49.23,11111222 
DISL,ioos:station:DISL:KATA:1,2019-10-01T15:56:00Z,30.2583,-88.2131,41.15,11111222 
DISL,ioos:station:DISL:KATA:1,2019-10-01T16:56:00Z,30.2583,-88.2131,51.83,11111222 
DISL,ioos:station:DISL:KATA:1,2019-10-01T17:56:00Z,30.2583,-88.2131,42.44,11111222 
DISL,ioos:station:DISL:KATA:1,2019-10-01T18:56:00Z,30.2583,-88.2131,40.03,11111222 
DISL,ioos:station:DISL:KATA:1,2019-10-01T19:56:00Z,30.2583,-88.2131,39.69,11111222 
DISL,ioos:station:DISL:KATA:1,2019-10-01T20:56:00Z,30.2583,-88.2131,46.61,11111222 
DISL,ioos:station:DISL:KATA:1,2019-10-01T21:56:00Z,30.2583,-88.2131,52.51,11111222 
DISL,ioos:station:DISL:KATA:1,2019-10-01T22:56:00Z,30.2583,-88.2131,54.61,11111222 
DISL,ioos:station:DISL:KATA:1,2019-10-01T23:56:00Z,30.2583,-88.2131,50.99,11111222 
DISL,ioos:station:DISL:KATA:1,2019-10-02T00:56:00Z,30.2583,-88.2131,55.92,11111222 
DISL,ioos:station:DISL:KATA:1,2019-10-02T01:56:00Z,30.2583,-88.2131,53.78,11111222 
DISL,ioos:station:DISL:KATA:1,2019-10-02T02:56:00Z,30.2583,-88.2131,53.92,11111222 
DISL,ioos:station:DISL:KATA:1,2019-10-02T03:56:00Z,30.2583,-88.2131,54.05,11111222 
DISL,ioos:station:DISL:KATA:1,2019-10-02T05:27:00Z,30.2583,-88.2131,59.21,11111222 
DISL,ioos:station:DISL:KATA:1,2019-10-02T05:57:00Z,30.2583,-88.2131,59.55,11111222 
DISL,ioos:station:DISL:KATA:1,2019-10-02T06:57:00Z,30.2583,-88.2131,59.14,11111222 
DISL,ioos:station:DISL:KATA:1,2019-10-02T07:57:00Z,30.2583,-88.2131,59.95,11111222 
DISL,ioos:station:DISL:KATA:1,2019-10-02T08:57:00Z,30.2583,-88.2131,59.51,11111222 
DISL,ioos:station:DISL:KATA:1,2019-10-02T09:57:00Z,30.2583,-88.2131,64.77,11111222 
DISL,ioos:station:DISL:KATA:1,2019-10-02T10:57:00Z,30.2583,-88.2131,65.79,11111222 
DISL,ioos:station:DISL:KATA:1,2019-10-02T11:57:00Z,30.2583,-88.2131,64.46,11111222 
DISL,ioos:station:DISL:KATA:1,2019-10-02T12:57:00Z,30.2583,-88.2131,63.24,11111222 
DISL,ioos:station:DISL:KATA:1,2019-10-02T13:57:00Z,30.2583,-88.2131,69.17,11111222 
DISL,ioos:station:DISL:KATA:1,2019-10-02T14:57:00Z,30.2583,-88.2131,56.41,11111222 
DISL,ioos:station:DISL:KATA:1,2019-10-02T15:57:00Z,30.2583,-88.2131,59.26,11111222 
DISL,ioos:station:DISL:KATA:1,2019-10-02T16:57:00Z,30.2583,-88.2131,57.29,11111222 
DISL,ioos:station:DISL:KATA:1,2019-10-02T17:57:00Z,30.2583,-88.2131,56.71,11111222 
DISL,ioos:station:DISL:KATA:1,2019-10-02T18:57:00Z,30.2583,-88.2131,61.02,11111222 
DISL,ioos:station:DISL:KATA:1,2019-10-02T19:57:00Z,30.2583,-88.2131,59.39,11111222 
DISL,ioos:station:DISL:KATA:1,2019-10-02T20:57:00Z,30.2583,-88.2131,59.13,11111222 
DISL,ioos:station:DISL:KATA:1,2019-10-02T21:57:00Z,30.2583,-88.2131,52.92,11111222 
DISL,ioos:station:DISL:KATA:1,2019-10-02T22:57:00Z,30.2583,-88.2131,56.82,11111222 
DISL,ioos:station:DISL:KATA:1,2019-10-02T23:57:00Z,30.2583,-88.2131,47.74,11111222 
DISL,ioos:station:DISL:KATA:1,2019-10-03T00:57:00Z,30.2583,-88.2131,47.2,11111222 
DISL,ioos:station:DISL:KATA:1,2019-10-03T01:57:00Z,30.2583,-88.2131,49.0,11111222 
DISL,ioos:station:DISL:KATA:1,2019-10-03T02:57:00Z,30.2583,-88.2131,51.17,11111222 
DISL,ioos:station:DISL:KATA:1,2019-10-03T03:57:00Z,30.2583,-88.2131,50.9,11111222 
DISL,ioos:station:DISL:KATA:1,2019-10-03T04:57:00Z,30.2583,-88.2131,50.32,11111222 
DISL,ioos:station:DISL:KATA:1,2019-10-03T05:57:00Z,30.2583,-88.2131,51.85,11111222 
DISL,ioos:station:DISL:KATA:1,2019-10-03T06:57:00Z,30.2583,-88.2131,51.37,11111222 
DISL,ioos:station:DISL:KATA:1,2019-10-03T07:57:00Z,30.2583,-88.2131,52.53,11111222 
DISL,ioos:station:DISL:KATA:1,2019-10-03T08:57:00Z,30.2583,-88.2131,52.25,11111222 
DISL,ioos:station:DISL:KATA:1,2019-10-03T09:57:00Z,30.2583,-88.2131,54.9,11111222 
DISL,ioos:station:DISL:KATA:1,2019-10-03T10:57:00Z,30.2583,-88.2131,64.09,11111222 
DISL,ioos:station:DISL:KATA:1,2019-10-03T11:57:00Z,30.2583,-88.2131,62.39,11111222 
DISL,ioos:station:DISL:KATA:1,2019-10-03T12:57:00Z,30.2583,-88.2131,62.9,11111222 
DISL,ioos:station:DISL:KATA:1,2019-10-03T13:57:00Z,30.2583,-88.2131,57.85,11111222 
DISL,ioos:station:DISL:KATA:1,2019-10-03T14:57:00Z,30.2583,-88.2131,52.17,11111222 
DISL,ioos:station:DISL:KATA:1,2019-10-03T15:57:00Z,30.2583,-88.2131,47.42,11111222 
DISL,ioos:station:DISL:KATA:1,2019-10-03T16:57:00Z,30.2583,-88.2131,49.97,11111222 
DISL,ioos:station:DISL:KATA:1,2019-10-03T17:57:00Z,30.2583,-88.2131,40.44,11111222 
DISL,ioos:station:DISL:KATA:1,2019-10-03T18:57:00Z,30.2583,-88.2131,42.95,11111222 
DISL,ioos:station:DISL:KATA:1,2019-10-03T19:57:00Z,30.2583,-88.2131,45.66,11111222 
DISL,ioos:station:DISL:KATA:1,2019-10-03T20:57:00Z,30.2583,-88.2131,45.36,11111222 
DISL,ioos:station:DISL:KATA:1,2019-10-03T21:57:00Z,30.2583,-88.2131,44.24,11111222 
DISL,ioos:station:DISL:KATA:1,2019-10-03T22:57:00Z,30.2583,-88.2131,47.73,11111222 
DISL,ioos:station:DISL:KATA:1,2019-10-03T23:57:00Z,30.2583,-88.2131,49.81,11111222 
DISL,ioos:station:DISL:KATA:1,2019-10-04T00:57:00Z,30.2583,-88.2131,51.48,11111222 
DISL,ioos:station:DISL:KATA:1,2019-10-04T01:57:00Z,30.2583,-88.2131,51.37,11111222 
DISL,ioos:station:DISL:KATA:1,2019-10-04T02:57:00Z,30.2583,-88.2131,53.44,11111222 
DISL,ioos:station:DISL:KATA:1,2019-10-04T03:57:00Z,30.2583,-88.2131,54.46,11111222 
DISL,ioos:station:DISL:KATA:1,2019-10-04T04:57:00Z,30.2583,-88.2131,53.98,11111222 
DISL,ioos:station:DISL:KATA:1,2019-10-04T05:57:00Z,30.2583,-88.2131,55.82,11111222 
DISL,ioos:station:DISL:KATA:1,2019-10-04T06:57:00Z,30.2583,-88.2131,56.36,11111222 
DISL,ioos:station:DISL:KATA:1,2019-10-04T07:57:00Z,30.2583,-88.2131,56.02,11111222 
DISL,ioos:station:DISL:KATA:1,2019-10-04T08:57:00Z,30.2583,-88.2131,56.53,11111222 
DISL,ioos:station:DISL:KATA:1,2019-10-04T09:57:00Z,30.2583,-88.2131,55.88,11111222 
DISL,ioos:station:DISL:KATA:1,2019-10-04T10:56:00Z,30.2583,-88.2131,59.85,11111222 
DISL,ioos:station:DISL:KATA:1,2019-10-04T11:56:00Z,30.2583,-88.2131,64.12,11111222 
DISL,ioos:station:DISL:KATA:1,2019-10-04T12:56:00Z,30.2583,-88.2131,57.27,11111222 
DISL,ioos:station:DISL:KATA:1,2019-10-04T13:56:00Z,30.2583,-88.2131,49.91,11111222 
DISL,ioos:station:DISL:KATA:1,2019-10-04T14:56:00Z,30.2583,-88.2131,47.02,11111222 
DISL,ioos:station:DISL:KATA:1,2019-10-04T15:56:00Z,30.2583,-88.2131,44.03,11111222 
DISL,ioos:station:DISL:KATA:1,2019-10-04T16:56:00Z,30.2583,-88.2131,35.17,11111222 
DISL,ioos:station:DISL:KATA:1,2019-10-04T17:56:00Z,30.2583,-88.2131,40.98,11111222 
DISL,ioos:station:DISL:KATA:1,2019-10-04T18:56:00Z,30.2583,-88.2131,44.51,11111222 
DISL,ioos:station:DISL:KATA:1,2019-10-04T19:56:00Z,30.2583,-88.2131,48.68,11111222 
DISL,ioos:station:DISL:KATA:1,2019-10-04T20:56:00Z,30.2583,-88.2131,48.14,11111222 
DISL,ioos:station:DISL:KATA:1,2019-10-04T21:56:00Z,30.2583,-88.2131,44.11,11111222 
DISL,ioos:station:DISL:KATA:1,2019-10-04T22:56:00Z,30.2583,-88.2131,48.93,11111222 
DISL,ioos:station:DISL:KATA:1,2019-10-04T23:56:00Z,30.2583,-88.2131,50.36,11111222 
DISL,ioos:station:DISL:KATA:1,2019-10-05T00:56:00Z,30.2583,-88.2131,51.31,11111222 
DISL,ioos:station:DISL:KATA:1,2019-10-05T01:56:00Z,30.2583,-88.2131,48.49,11111222 
DISL,ioos:station:DISL:KATA:1,2019-10-05T02:56:00Z,30.2583,-88.2131,54.05,11111222 
DISL,ioos:station:DISL:KATA:1,2019-10-05T03:56:00Z,30.2583,-88.2131,48.52,11111222 
DISL,ioos:station:DISL:KATA:1,2019-10-05T04:56:00Z,30.2583,-88.2131,57.58,11111222 
DISL,ioos:station:DISL:KATA:1,2019-10-05T05:56:00Z,30.2583,-88.2131,59.12,11111222 
DISL,ioos:station:DISL:KATA:1,2019-10-05T06:56:00Z,30.2583,-88.2131,54.61,11111222 
DISL,ioos:station:DISL:KATA:1,2019-10-05T07:56:00Z,30.2583,-88.2131,56.21,11111222 
DISL,ioos:station:DISL:KATA:1,2019-10-05T08:56:00Z,30.2583,-88.2131,62.04,11111222 
DISL,ioos:station:DISL:KATA:1,2019-10-05T09:56:00Z,30.2583,-88.2131,60.82,11111222 
DISL,ioos:station:DISL:KATA:1,2019-10-05T10:56:00Z,30.2583,-88.2131,65.76,11111222 
DISL,ioos:station:DISL:KATA:1,2019-10-05T11:56:00Z,30.2583,-88.2131,63.76,11111222 
DISL,ioos:station:DISL:KATA:1,2019-10-05T12:56:00Z,30.2583,-88.2131,57.61,11111222 
DISL,ioos:station:DISL:KATA:1,2019-10-05T13:56:00Z,30.2583,-88.2131,53.31,11111222 
DISL,ioos:station:DISL:KATA:1,2019-10-05T14:56:00Z,30.2583,-88.2131,53.2,11111222 
DISL,ioos:station:DISL:KATA:1,2019-10-05T15:56:00Z,30.2583,-88.2131,50.27,11111222 
DISL,ioos:station:DISL:KATA:1,2019-10-05T16:56:00Z,30.2583,-88.2131,58.95,11111222 
DISL,ioos:station:DISL:KATA:1,2019-10-05T17:56:00Z,30.2583,-88.2131,46.81,11111222 
DISL,ioos:station:DISL:KATA:1,2019-10-05T18:56:00Z,30.2583,-88.2131,52.1,11111222 
DISL,ioos:station:DISL:KATA:1,2019-10-05T19:56:00Z,30.2583,-88.2131,47.33,11111222 
DISL,ioos:station:DISL:KATA:1,2019-10-05T20:56:00Z,30.2583,-88.2131,47.64,11111222 
DISL,ioos:station:DISL:KATA:1,2019-10-05T21:56:00Z,30.2583,-88.2131,47.77,11111222 
DISL,ioos:station:DISL:KATA:1,2019-10-05T22:56:00Z,30.2583,-88.2131,48.42,11111222 
DISL,ioos:station:DISL:KATA:1,2019-10-05T23:56:00Z,30.2583,-88.2131,51.71,11111222 
DISL,ioos:station:DISL:KATA:1,2019-10-06T00:56:00Z,30.2583,-88.2131,53.2,11111222 
DISL,ioos:station:DISL:KATA:1,2019-10-06T01:56:00Z,30.2583,-88.2131,52.93,11111222 
DISL,ioos:station:DISL:KATA:1,2019-10-06T02:56:00Z,30.2583,-88.2131,54.05,11111222 
DISL,ioos:station:DISL:KATA:1,2019-10-06T03:56:00Z,30.2583,-88.2131,57.27,11111222 
DISL,ioos:station:DISL:KATA:1,2019-10-06T04:56:00Z,30.2583,-88.2131,55.21,11111222 
DISL,ioos:station:DISL:KATA:1,2019-10-06T05:56:00Z,30.2583,-88.2131,54.56,11111222 
DISL,ioos:station:DISL:KATA:1,2019-10-06T06:56:00Z,30.2583,-88.2131,62.83,11111222 
DISL,ioos:station:DISL:KATA:1,2019-10-06T07:56:00Z,30.2583,-88.2131,61.41,11111222 
DISL,ioos:station:DISL:KATA:1,2019-10-06T08:56:00Z,30.2583,-88.2131,60.02,11111222 
DISL,ioos:station:DISL:KATA:1,2019-10-06T09:56:00Z,30.2583,-88.2131,63.28,11111222 
DISL,ioos:station:DISL:KATA:1,2019-10-06T10:56:00Z,30.2583,-88.2131,58.19,11111222 
DISL,ioos:station:DISL:KATA:1,2019-10-06T11:56:00Z,30.2583,-88.2131,57.82,11111222 
DISL,ioos:station:DISL:KATA:1,2019-10-06T12:56:00Z,30.2583,-88.2131,60.51,11111222 
DISL,ioos:station:DISL:KATA:1,2019-10-06T13:56:00Z,30.2583,-88.2131,60.54,11111222 
DISL,ioos:station:DISL:KATA:1,2019-10-06T14:56:00Z,30.2583,-88.2131,60.12,11111222 
DISL,ioos:station:DISL:KATA:1,2019-10-06T15:56:00Z,30.2583,-88.2131,63.34,11111222 
DISL,ioos:station:DISL:KATA:1,2019-10-06T16:56:00Z,30.2583,-88.2131,66.16,11111222 
DISL,ioos:station:DISL:KATA:1,2019-10-06T17:56:00Z,30.2583,-88.2131,66.12,11111222 
DISL,ioos:station:DISL:KATA:1,2019-10-06T18:56:00Z,30.2583,-88.2131,63.45,11111222 
DISL,ioos:station:DISL:KATA:1,2019-10-06T19:56:00Z,30.2583,-88.2131,60.8,11111222 
DISL,ioos:station:DISL:KATA:1,2019-10-06T20:56:00Z,30.2583,-88.2131,55.99,11111222 
DISL,ioos:station:DISL:KATA:1,2019-10-06T21:56:00Z,30.2583,-88.2131,58.44,11111222 
DISL,ioos:station:DISL:KATA:1,2019-10-06T22:56:00Z,30.2583,-88.2131,53.21,11111222 
DISL,ioos:station:DISL:KATA:1,2019-10-06T23:56:00Z,30.2583,-88.2131,56.12,11111222 
DISL,ioos:station:DISL:KATA:1,2019-10-07T00:56:00Z,30.2583,-88.2131,54.12,11111222 
DISL,ioos:station:DISL:KATA:1,2019-10-07T01:56:00Z,30.2583,-88.2131,50.49,11111222 
DISL,ioos:station:DISL:KATA:1,2019-10-07T02:56:00Z,30.2583,-88.2131,53.41,11111222 
DISL,ioos:station:DISL:KATA:1,2019-10-07T03:56:00Z,30.2583,-88.2131,58.43,11111222 
DISL,ioos:station:DISL:KATA:1,2019-10-07T04:56:00Z,30.2583,-88.2131,59.65,11111222 
DISL,ioos:station:DISL:KATA:1,2019-10-07T05:56:00Z,30.2583,-88.2131,58.56,11111222 
DISL,ioos:station:DISL:KATA:1,2019-10-07T06:56:00Z,30.2583,-88.2131,67.18,11111222 
DISL,ioos:station:DISL:KATA:1,2019-10-07T07:56:00Z,30.2583,-88.2131,64.67,11111222 
DISL,ioos:station:DISL:KATA:1,2019-10-07T08:56:00Z,30.2583,-88.2131,59.66,11111222 
DISL,ioos:station:DISL:KATA:1,2019-10-07T09:56:00Z,30.2583,-88.2131,49.93,11111222 
DISL,ioos:station:DISL:KATA:1,2019-10-07T10:56:00Z,30.2583,-88.2131,66.82,11111222 
DISL,ioos:station:DISL:KATA:1,2019-10-07T11:56:00Z,30.2583,-88.2131,66.25,11111222 
DISL,ioos:station:DISL:KATA:1,2019-10-07T12:56:00Z,30.2583,-88.2131,65.84,11111222 
DISL,ioos:station:DISL:KATA:1,2019-10-07T18:56:00Z,30.2583,-88.2131,48.65,11111222 
DISL,ioos:station:DISL:KATA:1,2019-10-07T19:56:00Z,30.2583,-88.2131,52.05,11111222 
DISL,ioos:station:DISL:KATA:1,2019-10-07T20:56:00Z,30.2583,-88.2131,43.67,11111222 
DISL,ioos:station:DISL:KATA:1,2019-10-07T21:56:00Z,30.2583,-88.2131,49.24,11111222 
DISL,ioos:station:DISL:KATA:1,2019-10-07T22:56:00Z,30.2583,-88.2131,54.09,11111222 
DISL,ioos:station:DISL:KATA:1,2019-10-07T23:56:00Z,30.2583,-88.2131,54.8,11111222 
DISL,ioos:station:DISL:KATA:1,2019-10-08T00:56:00Z,30.2583,-88.2131,52.7,11111222 
DISL,ioos:station:DISL:KATA:1,2019-10-08T01:56:00Z,30.2583,-88.2131,54.59,11111222 
DISL,ioos:station:DISL:KATA:1,2019-10-08T02:56:00Z,30.2583,-88.2131,51.24,11111222 
DISL,ioos:station:DISL:KATA:1,2019-10-08T03:56:00Z,30.2583,-88.2131,48.7,11111222 
DISL,ioos:station:DISL:KATA:1,2019-10-08T04:56:00Z,30.2583,-88.2131,47.73,11111222 
DISL,ioos:station:DISL:KATA:1,2019-10-08T05:56:00Z,30.2583,-88.2131,49.05,11111222 
DISL,ioos:station:DISL:KATA:1,2019-10-08T06:56:00Z,30.2583,-88.2131,56.95,11111222 
DISL,ioos:station:DISL:KATA:1,2019-10-08T07:56:00Z,30.2583,-88.2131,61.47,11111222 
DISL,ioos:station:DISL:KATA:1,2019-10-08T08:56:00Z,30.2583,-88.2131,65.33,11111222 
DISL,ioos:station:DISL:KATA:1,2019-10-08T09:56:00Z,30.2583,-88.2131,69.3,11111222 
DISL,ioos:station:DISL:KATA:1,2019-10-08T10:56:00Z,30.2583,-88.2131,70.32,11111222 
DISL,ioos:station:DISL:KATA:1,2019-10-08T11:56:00Z,30.2583,-88.2131,71.78,11111222 
DISL,ioos:station:DISL:KATA:1,2019-10-08T12:56:00Z,30.2583,-88.2131,74.83,11111222 
DISL,ioos:station:DISL:KATA:1,2019-10-08T13:56:00Z,30.2583,-88.2131,72.05,11111222 
DISL,ioos:station:DISL:KATA:1,2019-10-08T14:56:00Z,30.2583,-88.2131,66.15,11111222 
DISL,ioos:station:DISL:KATA:1,2019-10-08T15:56:00Z,30.2583,-88.2131,61.72,11111222 
DISL,ioos:station:DISL:KATA:1,2019-10-08T16:56:00Z,30.2583,-88.2131,57.41,11111222 
DISL,ioos:station:DISL:KATA:1,2019-10-08T17:56:00Z,30.2583,-88.2131,53.03,11111222 
DISL,ioos:station:DISL:KATA:1,2019-10-08T19:26:00Z,30.2583,-88.2131,45.88,11111222 
DISL,ioos:station:DISL:KATA:1,2019-10-08T19:56:00Z,30.2583,-88.2131,45.64,11111222 
DISL,ioos:station:DISL:KATA:1,2019-10-08T20:56:00Z,30.2583,-88.2131,45.43,11111222 
DISL,ioos:station:DISL:KATA:1,2019-10-08T21:56:00Z,30.2583,-88.2131,44.96,11111222 
DISL,ioos:station:DISL:KATA:1,2019-10-08T22:56:00Z,30.2583,-88.2131,45.74,11111222 
DISL,ioos:station:DISL:KATA:1,2019-10-08T23:56:00Z,30.2583,-88.2131,44.56,11111222 
DISL,ioos:station:DISL:KATA:1,2019-10-09T00:56:00Z,30.2583,-88.2131,50.22,11111222 
DISL,ioos:station:DISL:KATA:1,2019-10-09T01:56:00Z,30.2583,-88.2131,49.88,11111222 
DISL,ioos:station:DISL:KATA:1,2019-10-09T02:56:00Z,30.2583,-88.2131,48.05,11111222 
DISL,ioos:station:DISL:KATA:1,2019-10-09T03:56:00Z,30.2583,-88.2131,48.83,11111222 
DISL,ioos:station:DISL:KATA:1,2019-10-09T04:56:00Z,30.2583,-88.2131,49.05,11111222 
DISL,ioos:station:DISL:KATA:1,2019-10-09T05:56:00Z,30.2583,-88.2131,54.41,11111222 
DISL,ioos:station:DISL:KATA:1,2019-10-09T06:56:00Z,30.2583,-88.2131,56.21,11111222 
DISL,ioos:station:DISL:KATA:1,2019-10-09T07:56:00Z,30.2583,-88.2131,59.06,11111222 
DISL,ioos:station:DISL:KATA:1,2019-10-09T08:56:00Z,30.2583,-88.2131,59.29,11111222 
DISL,ioos:station:DISL:KATA:1,2019-10-09T09:56:00Z,30.2583,-88.2131,62.72,11111222 
DISL,ioos:station:DISL:KATA:1,2019-10-09T10:56:00Z,30.2583,-88.2131,64.76,11111222 
DISL,ioos:station:DISL:KATA:1,2019-10-09T11:56:00Z,30.2583,-88.2131,67.4,11111222 
DISL,ioos:station:DISL:KATA:1,2019-10-09T12:56:00Z,30.2583,-88.2131,67.37,11111222 
DISL,ioos:station:DISL:KATA:1,2019-10-09T13:56:00Z,30.2583,-88.2131,60.75,11111222 
DISL,ioos:station:DISL:KATA:1,2019-10-09T14:56:00Z,30.2583,-88.2131,60.2,11111222 
DISL,ioos:station:DISL:KATA:1,2019-10-09T15:56:00Z,30.2583,-88.2131,59.31,11111222 
DISL,ioos:station:DISL:KATA:1,2019-10-09T16:56:00Z,30.2583,-88.2131,59.07,11111222 
DISL,ioos:station:DISL:KATA:1,2019-10-09T17:56:00Z,30.2583,-88.2131,61.04,11111222 
DISL,ioos:station:DISL:KATA:1,2019-10-09T18:56:00Z,30.2583,-88.2131,49.77,11111222 
DISL,ioos:station:DISL:KATA:1,2019-10-09T19:56:00Z,30.2583,-88.2131,54.79,11111222 
DISL,ioos:station:DISL:KATA:1,2019-10-09T20:56:00Z,30.2583,-88.2131,55.41,11111222 
DISL,ioos:station:DISL:KATA:1,2019-10-09T21:56:00Z,30.2583,-88.2131,54.63,11111222 
DISL,ioos:station:DISL:KATA:1,2019-10-09T22:56:00Z,30.2583,-88.2131,53.07,11111222 
DISL,ioos:station:DISL:KATA:1,2019-10-09T23:56:00Z,30.2583,-88.2131,51.07,11111222 
DISL,ioos:station:DISL:KATA:1,2019-10-10T02:56:00Z,30.2583,-88.2131,52.15,11111222 
DISL,ioos:station:DISL:KATA:1,2019-10-10T03:56:00Z,30.2583,-88.2131,53.0,11111222 
DISL,ioos:station:DISL:KATA:1,2019-10-10T04:56:00Z,30.2583,-88.2131,53.75,11111222 
DISL,ioos:station:DISL:KATA:1,2019-10-10T05:56:00Z,30.2583,-88.2131,55.27,11111222 
DISL,ioos:station:DISL:KATA:1,2019-10-10T06:56:00Z,30.2583,-88.2131,54.12,11111222 
DISL,ioos:station:DISL:KATA:1,2019-10-10T07:56:00Z,30.2583,-88.2131,52.97,11111222 
DISL,ioos:station:DISL:KATA:1,2019-10-10T08:56:00Z,30.2583,-88.2131,52.26,11111222 
DISL,ioos:station:DISL:KATA:1,2019-10-10T09:56:00Z,30.2583,-88.2131,51.58,11111222 
DISL,ioos:station:DISL:KATA:1,2019-10-10T10:56:00Z,30.2583,-88.2131,51.75,11111222 
DISL,ioos:station:DISL:KATA:1,2019-10-10T11:56:00Z,30.2583,-88.2131,60.09,11111222 
DISL,ioos:station:DISL:KATA:1,2019-10-10T12:56:00Z,30.2583,-88.2131,58.9,11111222 
DISL,ioos:station:DISL:KATA:1,2019-10-10T13:56:00Z,30.2583,-88.2131,65.92,11111222 
DISL,ioos:station:DISL:KATA:1,2019-10-10T14:56:00Z,30.2583,-88.2131,65.79,11111222 
DISL,ioos:station:DISL:KATA:1,2019-10-10T15:56:00Z,30.2583,-88.2131,63.14,11111222 
DISL,ioos:station:DISL:KATA:1,2019-10-10T16:56:00Z,30.2583,-88.2131,56.63,11111222 
DISL,ioos:station:DISL:KATA:1,2019-10-10T17:56:00Z,30.2583,-88.2131,57.34,11111222 
DISL,ioos:station:DISL:KATA:1,2019-10-10T18:56:00Z,30.2583,-88.2131,55.95,11111222 
DISL,ioos:station:DISL:KATA:1,2019-10-10T19:56:00Z,30.2583,-88.2131,56.32,11111222 
DISL,ioos:station:DISL:KATA:1,2019-10-10T20:56:00Z,30.2583,-88.2131,55.51,11111222 
DISL,ioos:station:DISL:KATA:1,2019-10-10T21:56:00Z,30.2583,-88.2131,54.46,11111222 
DISL,ioos:station:DISL:KATA:1,2019-10-10T22:56:00Z,30.2583,-88.2131,54.12,11111222 
DISL,ioos:station:DISL:KATA:1,2019-10-10T23:56:00Z,30.2583,-88.2131,54.97,11111222 
DISL,ioos:station:DISL:KATA:1,2019-10-11T00:56:00Z,30.2583,-88.2131,53.31,11111222 
DISL,ioos:station:DISL:KATA:1,2019-10-11T01:56:00Z,30.2583,-88.2131,49.0,11111222 
DISL,ioos:station:DISL:KATA:1,2019-10-11T02:56:00Z,30.2583,-88.2131,52.53,11111222 
DISL,ioos:station:DISL:KATA:1,2019-10-11T03:56:00Z,30.2583,-88.2131,53.1,11111222 
DISL,ioos:station:DISL:KATA:1,2019-10-11T04:56:00Z,30.2583,-88.2131,54.6,11111222 
DISL,ioos:station:DISL:KATA:1,2019-10-11T05:56:00Z,30.2583,-88.2131,53.24,11111222 
DISL,ioos:station:DISL:KATA:1,2019-10-11T06:56:00Z,30.2583,-88.2131,46.69,11111222 
DISL,ioos:station:DISL:KATA:1,2019-10-11T07:56:00Z,30.2583,-88.2131,44.73,11111222 
DISL,ioos:station:DISL:KATA:1,2019-10-11T08:56:00Z,30.2583,-88.2131,43.17,11111222 
DISL,ioos:station:DISL:KATA:1,2019-10-11T09:56:00Z,30.2583,-88.2131,49.03,11111222 
DISL,ioos:station:DISL:KATA:1,2019-10-11T10:56:00Z,30.2583,-88.2131,48.25,11111222 
DISL,ioos:station:DISL:KATA:1,2019-10-11T11:56:00Z,30.2583,-88.2131,51.31,11111222 
DISL,ioos:station:DISL:KATA:1,2019-10-11T12:56:00Z,30.2583,-88.2131,55.31,11111222 
DISL,ioos:station:DISL:KATA:1,2019-10-11T13:56:00Z,30.2583,-88.2131,58.43,11111222 
DISL,ioos:station:DISL:KATA:1,2019-10-11T14:56:00Z,30.2583,-88.2131,57.57,11111222 
DISL,ioos:station:DISL:KATA:1,2019-10-11T15:56:00Z,30.2583,-88.2131,58.52,11111222 
DISL,ioos:station:DISL:KATA:1,2019-10-11T16:56:00Z,30.2583,-88.2131,56.89,11111222 
DISL,ioos:station:DISL:KATA:1,2019-10-11T17:56:00Z,30.2583,-88.2131,60.52,11111222 
DISL,ioos:station:DISL:KATA:1,2019-10-11T18:56:00Z,30.2583,-88.2131,63.07,11111222 
DISL,ioos:station:DISL:KATA:1,2019-10-11T19:56:00Z,30.2583,-88.2131,61.0,11111222 
DISL,ioos:station:DISL:KATA:1,2019-10-11T20:56:00Z,30.2583,-88.2131,62.36,11111222 
DISL,ioos:station:DISL:KATA:1,2019-10-11T21:56:00Z,30.2583,-88.2131,62.87,11111222 
DISL,ioos:station:DISL:KATA:1,2019-10-11T22:56:00Z,30.2583,-88.2131,62.19,11111222 
DISL,ioos:station:DISL:KATA:1,2019-10-11T23:56:00Z,30.2583,-88.2131,62.05,11111222 
DISL,ioos:station:DISL:KATA:1,2019-10-12T00:56:00Z,30.2583,-88.2131,64.21,11111222 
DISL,ioos:station:DISL:KATA:1,2019-10-12T01:56:00Z,30.2583,-88.2131,65.37,11111222 
DISL,ioos:station:DISL:KATA:1,2019-10-12T02:56:00Z,30.2583,-88.2131,66.52,11111222 
DISL,ioos:station:DISL:KATA:1,2019-10-12T15:56:00Z,30.2583,-88.2131,96.2,11111222 
DISL,ioos:station:DISL:KATA:1,2019-10-12T16:56:00Z,30.2583,-88.2131,84.9,11111222 
DISL,ioos:station:DISL:KATA:1,2019-10-12T17:56:00Z,30.2583,-88.2131,74.83,11111222 
DISL,ioos:station:DISL:KATA:1,2019-10-12T18:56:00Z,30.2583,-88.2131,72.42,11111222 
DISL,ioos:station:DISL:KATA:1,2019-10-12T19:56:00Z,30.2583,-88.2131,70.62,11111222 
DISL,ioos:station:DISL:KATA:1,2019-10-12T20:56:00Z,30.2583,-88.2131,70.69,11111222 
DISL,ioos:station:DISL:KATA:1,2019-10-12T21:56:00Z,30.2583,-88.2131,70.35,11111222 
DISL,ioos:station:DISL:KATA:1,2019-10-12T22:56:00Z,30.2583,-88.2131,71.21,11111222 
DISL,ioos:station:DISL:KATA:1,2019-10-12T23:56:00Z,30.2583,-88.2131,75.69,11111222 
DISL,ioos:station:DISL:KATA:1,2019-10-13T00:56:00Z,30.2583,-88.2131,74.04,11111222 
DISL,ioos:station:DISL:KATA:1,2019-10-13T01:56:00Z,30.2583,-88.2131,77.77,11111222 
DISL,ioos:station:DISL:KATA:1,2019-10-13T02:56:00Z,30.2583,-88.2131,75.47,11111222 
DISL,ioos:station:DISL:KATA:1,2019-10-13T03:56:00Z,30.2583,-88.2131,80.9,11111222 
DISL,ioos:station:DISL:KATA:1,2019-10-13T04:56:00Z,30.2583,-88.2131,88.9,11111222 
DISL,ioos:station:DISL:KATA:1,2019-10-13T05:56:00Z,30.2583,-88.2131,98.0,11111222 
DISL,ioos:station:DISL:KATA:1,2019-10-13T06:56:00Z,30.2583,-88.2131,98.5,11111222 
DISL,ioos:station:DISL:KATA:1,2019-10-13T07:56:00Z,30.2583,-88.2131,96.0,11111222 
DISL,ioos:station:DISL:KATA:1,2019-10-13T08:56:00Z,30.2583,-88.2131,91.4,11111222 
DISL,ioos:station:DISL:KATA:1,2019-10-13T09:56:00Z,30.2583,-88.2131,91.1,11111222 
DISL,ioos:station:DISL:KATA:1,2019-10-13T10:56:00Z,30.2583,-88.2131,100.0,11111222 
DISL,ioos:station:DISL:KATA:1,2019-10-13T11:56:00Z,30.2583,-88.2131,93.4,11111222 
DISL,ioos:station:DISL:KATA:1,2019-10-13T12:56:00Z,30.2583,-88.2131,81.4,11111222 
DISL,ioos:station:DISL:KATA:1,2019-10-13T13:56:00Z,30.2583,-88.2131,78.32,11111222 
DISL,ioos:station:DISL:KATA:1,2019-10-13T14:56:00Z,30.2583,-88.2131,79.29,11111222 
DISL,ioos:station:DISL:KATA:1,2019-10-13T15:56:00Z,30.2583,-88.2131,77.34,11111222 